CZ-4 DEB, 26449

Orbit data source: Space-Track

CZ-4 DEB, 26449 is space debris in SSO originally from a launch on Thu, 14 Oct 1999 UTC launched from the Taiyaun Space Center, China (TSC). Debris objects in space refer to the collection of defunct objects orbiting the Earth. Examples of debris include non-operational satellites, rocket bodies, and fragments generated from explosions, collisions, or faulty payload assembly.

Loading next visibility...
Identifier
26449, 1999-057KW
Orbit
SSO
Country
Flag of CNCN / PRC
Related business
Manufacturer
Unknown
Mission
Spacecraft
Bus & Motor
Unknown
Mass
Unknown
Launch date (UTC)
1999-10-14 (26 years ago)
Launch vehicle
Unknown
Launch site
Taiyaun Space Center, China (TSC)
Object type
Payload
Rocket body
Debris
Shape & HBR
Unknown shape, 0.1 m
Radar Cross Section
Small (<0.1 m²)

Expand to show TLE details & history
Last TLE update: 15 hours ago

TLE from 15 hours ago
0 CZ-4 DEB
1 26449U 99057KW  25296.66139225  .00002172  00000-0  54792-3 0  9995
2 26449  98.5418 355.3959 0077606 240.4289 273.6630 14.50357882344265
Epoch: 2025-10-23T15:52Z
TLE epoch observation values (Epoch: 2025-10-23T15:52:24.290Z)
Latitude
26.51258°
Longitude
-90.74882°
Altitude
724.646 km
Speed
7.497 km/s
True Right ascension
11h 58m 40s
True Declination
26° 22' 29"
Sunlit
Object was in daylight at epoch
Visualization orbit readout
Latitude
Unknown
Longitude
Unknown
Altitude
Unknown
Speed
Unknown
Apparent Right ascension
Unknown
Apparent Declination
Unknown
Sunlit
N/A
Visualization observer readout
Local Sidereal Time
02:17:47
Azimuth
Unknown
Elevation
Unknown
Doppler factor
Unknown
Orbital elements
Apogee altitude
776.688 km
Perigee altitude
666.492 km
Semi-major axis
7,099.727 km
Eccentricity
0.00776
Inclination
98.5418°
RAAN
355.3959°
Arg. of periapsis
240.4289°
True anomaly
272.775°
Mean anomaly
273.663°
Eccentric anomaly
273.21905°
Mean motion
3.62811 °/min
Orbital period
99.23 mins
BSTAR
0.00054792
Loading maneuver chart data...
Computing Atmospheric mass density...

Documentation

Showing up to 5 results
|